Weather History for Hawthorne, CA

Change the Weather History Date:

Wednesday, February 13, 2013

  Actual Average Record
Temperature  
Mean Temperature 54 °F -  
Max Temperature 63 °F 65 °F 87 °F (2006)
Min Temperature 44 °F 49 °F 35 °F (1948)
Degree Days  
Heating Degree Days 12    
Growing Degree Days 4 (Base 50)    
Moisture  
Dew Point 40 °F    
Average Humidity 60    
Maximum Humidity 83    
Minimum Humidity 38    
Precipitation  
Precipitation 0.00 in - - ()
Sea Level Pressure  
Sea Level Pressure 30.21 in    
Wind  
Wind Speed 2 mph (West)    
Max Wind Speed 9 mph    
Max Gust Speed -    
Visibility 9 miles    
Events      
Averages and records for this station are not official NWS values.
T = Trace of Precipitation, MM = Missing Value Source: NWS Daily Summary

Daily Weather History Graph

Daily Weather History Graph

Search for Another Location

Airport:

Trip Planner

Search our weather history database for the weather conditions in past years. The results will help you decide how hot, cold, wet, or windy it might be!

Date:

Astronomy

Feb. 13, 2013 Rise Set
Actual Time 6:39 AM PST 5:35 PM PST
Civil Twilight 6:13 AM PST 6:01 PM PST
Nautical Twilight 5:44 AM PST 6:30 PM PST
Astronomical Twilight 5:15 AM PST 7:00 PM PST
Moon 8:24 AM PST (2/13) 9:28 PM PST (2/13)
Length of Visible Light 11h 47m
Length of Day
10h 56m
Waxing Crescent, 14% of the Moon is Illuminated
Feb 13
Waxing Crescent
Feb 17
First Quarter
Feb 25
Full
Mar 4
Last Quarter
Mar 11
New

Hourly Weather History & Observations

Time (PST) Temp. Dew Point Humidity Pressure Visibility Wind Dir Wind Speed Gust Speed Precip Events Conditions
12:53 AM 48.9 °F 42.1 °F 77% 30.26 in 10.0 mi Calm Calm - N/A   Clear
1:53 AM 48.0 °F 39.0 °F 71% 30.25 in 10.0 mi Calm Calm - N/A   Clear
2:53 AM 46.9 °F 37.0 °F 68% 30.25 in 10.0 mi Calm Calm - N/A   Clear
3:53 AM 46.0 °F 36.0 °F 68% 30.24 in 10.0 mi Calm Calm - N/A   Clear
4:53 AM 46.9 °F 34.0 °F 61% 30.23 in 10.0 mi Calm Calm - N/A   Clear
5:53 AM 45.0 °F 34.0 °F 65% 30.24 in 10.0 mi Calm Calm - N/A   Clear
6:53 AM 44.1 °F 35.1 °F 71% 30.26 in 10.0 mi Calm Calm - N/A   Clear
7:53 AM 50.0 °F 34.0 °F 54% 30.26 in 3.0 mi Variable 3.5 mph - N/A   Haze
8:53 AM 53.1 °F 35.1 °F 50% 30.27 in 10.0 mi East 3.5 mph - N/A   Clear
9:53 AM 57.0 °F 36.0 °F 45% 30.27 in 10.0 mi Calm Calm - N/A   Clear
10:53 AM 60.1 °F 34.0 °F 38% 30.26 in 10.0 mi Calm Calm - N/A   Clear
11:53 AM 63.0 °F 39.9 °F 43% 30.23 in 10.0 mi WSW 6.9 mph - N/A   Clear
12:53 PM 63.0 °F 42.1 °F 46% 30.20 in 10.0 mi WSW 5.8 mph - N/A   Clear
1:53 PM 63.0 °F 42.1 °F 46% 30.18 in 10.0 mi West 8.1 mph - N/A   Clear
2:53 PM 62.1 °F 39.9 °F 44% 30.17 in 10.0 mi WSW 8.1 mph - N/A   Clear
3:11 PM 62.6 °F 39.2 °F 42% 30.16 in 2.0 mi West 9.2 mph - N/A   Haze
3:21 PM 62.6 °F 39.2 °F 42% 30.15 in 10.0 mi WSW 9.2 mph - N/A   Clear
3:53 PM 61.0 °F 42.1 °F 50% 30.15 in 10.0 mi West 8.1 mph - N/A   Clear
4:53 PM 60.1 °F 43.0 °F 53% 30.15 in 10.0 mi West 6.9 mph - N/A   Clear
5:53 PM 57.0 °F 44.1 °F 62% 30.16 in 10.0 mi WNW 4.6 mph - N/A   Clear
6:53 PM 55.9 °F 44.1 °F 64% 30.15 in 10.0 mi WNW 4.6 mph - N/A   Clear
7:53 PM 55.0 °F 46.9 °F 74% 30.16 in 10.0 mi Calm Calm - N/A   Clear
8:53 PM 54.0 °F 48.0 °F 80% 30.17 in 10.0 mi Calm Calm - N/A   Clear
9:53 PM 54.0 °F 48.0 °F 80% 30.17 in 10.0 mi Calm Calm - N/A   Clear
10:53 PM 52.0 °F 46.9 °F 83% 30.17 in 10.0 mi Calm Calm - N/A   Clear
11:53 PM 51.1 °F 46.0 °F 83% 30.18 in 10.0 mi Calm Calm - N/A   Clear